671  
ASUS43 KOAX 221313  
RWRNE  
 
WEATHER ROUNDUP FOR NEBRASKA  
NATIONAL WEATHER SERVICE OMAHA NE  
700 AM CST THU FEB 22 2024  
 
NOTES: SATELLITE DATA IS BEING USED TO AUGMENT CLOUD COVER ABOVE  
12000 FEET.  
"FAIR" INDICATES FEW OR NO CLOUDS BELOW 12,000 FEET WITH NO  
SIGNIFICANT WEATHER AND/OR S TO VISIBILITY
.  
 
 
NEZ001>004-019>022-054>056-221400-  
NEBRASKA PANHANDLE  
 
CITY SKY/WX TMP DP RH WIND PRES REMARKS
 
SCOTTSBLUFF CLOUDY 38 33 82 W7 30.04R WCI 33  
ALLIANCE CLOUDY 35 32 88 NW3 30.01R  
CHADRON PTCLDY 29 27 92 SW8 30.04R WCI 21  
GORDON PTCLDY 31 27 84 W7 30.00R WCI 25  
KIMBALL CLOUDY 33 30 88 NW7 30.03R WCI 27  
SIDNEY MOCLDY 33 28 81 NW10 30.01R WCI 25  

 
 
NEZ057>060-069>072-079>082-221400-  
SOUTHWEST NEBRASKA  
 
CITY SKY/WX TMP DP RH WIND PRES REMARKS
 
NORTH PLATTE CLEAR 38 32 79 N13 29.94R WCI 30  
GRANT PTCLDY 34 32 93 NW13 29.98R WCI 25  
IMPERIAL CLEAR 35 31 85 NW13 29.98R WCI 26  
LEXINGTON CLEAR 35 33 96 NW7 29.93R WCI 29  
MCCOOK CLEAR 37 33 85 W8 29.95R WCI 31  
OGALLALA PTCLDY 35 29 79 W5 30.00R WCI 31  

 
 
NEZ005>010-023>029-035>040-094-221400-  
NORTH CENTRAL NEBRASKA  
 
CITY SKY/WX TMP DP RH WIND PRES REMARKS
 
VALENTINE CLEAR 31 28 89 NW6 29.97R WCI 25  
AINSWORTH CLEAR 34 30 83 NW8 29.96R WCI 28  
BROKEN BOW CLEAR 38 33 82 N9 29.92R WCI 31  
O'NEILL CLEAR 35 31 84 NW8 29.91R WCI 29  
ORD PTCLDY N/A N/A N/A NW7 29.90R  
THEDFORD PTCLDY 35 29 79 NW7 29.97R WCI 29  

 
 
NEZ041-046>049-061>064-073>077-083>087-221400-  
SOUTH CENTRAL NEBRASKA  
 
CITY SKY/WX TMP DP RH WIND PRES REMARKS
 
GRAND ISLAND CLOUDY 47 37 68 NW15 29.88R  
AURORA CLOUDY 45 38 77 N10 29.88R  
HASTINGS CLOUDY 45 38 76 NW12 29.88R  
HEBRON CLOUDY 48 32 54 N12 29.86R  
HOLDREGE CLOUDY 42 38 87 NW8 29.90R  
KEARNEY PTCLDY 41 36 82 NW9 29.91R  
YORK CLOUDY 45 37 76 NW8 29.86R  

 
 
NEZ011>018-030>034-042>045-221400-  
NORTHEAST NEBRASKA  
 
CITY SKY/WX TMP DP RH WIND PRES REMARKS
 
NORFOLK MOCLDY 43 36 76 W10 29.86R  
ALBION MOCLDY 38 34 86 NW8 29.88S WCI 32  
BLAIR CLOUDY 47 32 55 N10 29.83R  
COLUMBUS CLOUDY 46 39 76 NW10 29.87R  
FREMONT MOCLDY 42 32 68 W3 29.85R  
TEKAMAH CLOUDY 44 34 67 N5 29.83S  
WAYNE N/A N/A N/A N/A MISG N/A  

 
 
NEZ050>053-065>068-078-088>093-221400-  
SOUTHEAST NEBRASKA  
 
CITY SKY/WX TMP DP RH WIND PRES REMARKS
 
LINCOLN CLOUDY 45 31 58 N7 29.85R  
OMAHA EPPLEY CLOUDY 42 32 67 N10 29.84R  
BEATRICE CLOUDY 42 31 65 N12 N/A  
FALLS CITY PTCLDY 42 29 59 NW7 29.80R  
NEBRASKA CITY MOCLDY 43 28 55 N9 29.82R  
PLATTSMOUTH CLOUDY 44 31 60 NW8 29.82R  

 
 
NEZ044-045-051>053-067-221400-  
OMAHA AREA  
 
CITY SKY/WX TMP DP RH WIND PRES REMARKS
 
OMAHA EPPLEY CLOUDY 42 32 67 N10 29.84R  
BLAIR CLOUDY 47 32 55 N10 29.83R  
FREMONT MOCLDY 42 32 68 W3 29.85R  
MILLARD CLOUDY 45 32 59 NW7 29.85R  
OFFUTT AFB CLOUDY 45 29 55 NW9 29.81R  
PLATTSMOUTH CLOUDY 44 31 60 NW8 29.82R  
WAHOO CLOUDY 48 33 56 NW10 29.84R  

 
 
 
CLICK HERE TO GO TO PREVIOUS BULLETINS.

The Nexlab NE Page Main Text Page